Wind_Speed
13 13 13 12 12 12 13 13 13 13 13 12 12 12 13 13 12 12 12 12 13 13 13 13 13 13 13 13 13 13 13 13 13 14 14 14 14 14 13 13 12 12 12
13 13 12 12 13 13 14 14 13 13 13 12 12 13 13 13 13 13 12 12 13 13 13 14 14 14 14 14 14 14 13 13 13 13 13 14 14 14 14 12 11 12 12
13 13 13 13 13 13 14 14 13 13 13 13 13 13 13 13 13 13 13 13 13 13 14 14 15 15 15 14 14 14 14 14 14 14 14 14 14 14 14 14 14 13 13
13 13 13 13 13 13 14 14 14 14 13 13 13 13 13 13 13 13 13 13 14 14 14 15 15 15 15 15 15 15 15 15 14 14 14 14 15 15 14 14 14 14 14
13 13 13 14 14 14 14 14 14 13 13 13 13 14 14 14 14 14 14 14 14 14 14 15 15 16 16 16 16 15 15 15 15 14 14 14 14 14 14 14 14 13 13
13 13 13 13 15 14 14 14 13 13 13 13 14 14 15 15 14 14 15 15 14 14 14 15 15 16 16 16 16 16 16 15 15 15 15 14 14 14 14 14 13 13 12
13 13 13 13 14 14 14 14 13 13 14 14 14 14 15 15 15 15 15 15 15 15 15 15 15 15 16 16 16 16 16 16 15 15 15 14 14 14 15 15 14 13 12
13 13 14 14 14 14 14 13 13 14 15 15 14 15 15 15 16 15 15 15 15 15 15 15 15 15 15 16 16 17 17 17 16 16 15 15 14 14 14 15 14 14 13
14 15 15 14 14 15 15 14 14 14 15 15 15 15 16 16 16 16 16 16 16 16 16 16 16 16 16 16 17 18 18 18 17 17 17 16 16 15 15 15 15 15 14
16 16 16 16 16 16 16 16 16 15 16 16 16 16 17 17 17 17 17 17 17 17 17 17 17 17 17 17 17 18 18 19 19 18 18 18 17 17 16 16 15 15 15
18 18 17 17 17 18 18 18 18 17 17 17 17 17 17 18 18 18 18 18 18 18 18 18 18 18 18 18 18 18 19 20 19 19 19 19 19 18 18 18 17 16 16
18 19 19 18 19 19 19 19 19 19 19 19 18 19 18 19 19 19 19 19 19 19 19 19 19 19 20 20 20 20 20 21 20 21 21 21 21 21 20 19 19 19 18
19 19 20 21 21 20 20 20 20 20 20 20 19 19 19 20 20 20 21 20 21 20 20 20 21 20 20 21 22 22 22 21 22 22 23 23 22 23 22 21 21 20 20
20 21 22 22 22 22 22 22 22 22 21 21 21 21 21 21 21 21 21 21 21 21 21 21 22 22 22 22 23 23 23 23 24 23 24 23 23 23 23 22 22 23 22
22 23 23 23 23 23 23 23 22 22 22 22 21 21 22 22 22 23 23 23 23 22 23 23 23 23 24 24 24 24 24 24 24 24 24 24 24 24 24 24 24 23 23
23 24 24 23 23 23 23 23 23 23 23 23 24 23 23 23 23 24 24 24 24 24 24 24 24 24 24 24 24 23 23 23 23 23 23 23 23 24 24 25 25 25 24
24 24 23 23 23 24 24 24 24 24 24 24 25 25 25 25 25 24 24 24 24 25 24 24 24 25 24 24 23 23 23 23 23 22 22 22 23 23 24 24 25 25 24
24 23 24 24 24 24 25 26 26 25 25 26 25 26 26 26 26 26 26 25 25 25 24 24 24 24 24 24 24 23 23 22 22 22 22 22 23 23 23 24 24 25 24
23 23 23 24 25 25 26 26 26 26 27 26 26 26 26 26 27 26 26 26 26 26 25 25 24 25 25 25 24 24 23 22 22 22 22 23 23 23 24 24 24 24 24
24 24 25 25 25 26 26 26 27 27 27 27 27 27 27 27 27 27 26 26 26 26 26 26 26 25 25 24 24 24 24 23 23 23 23 23 23 22 23 24 24 24 24
25 25 25 26 26 26 26 27 27 27 27 28 28 27 27 27 27 26 27 27 27 27 26 27 27 27 26 25 25 25 25 24 24 24 24 23 23 23 23 23 23 23 24
26 26 26 26 26 27 27 27 27 27 27 27 27 27 27 27 27 26 27 27 27 28 28 28 28 28 27 27 27 26 26 25 25 24 24 24 24 23 23 22 23 23 23
26 27 26 26 27 27 28 28 27 27 27 27 27 27 28 28 28 28 28 28 28 28 29 28 28 28 28 27 27 27 26 26 25 25 25 24 24 24 23 23 24 24 24
26 26 26 26 26 26 26 26 27 27 27 27 27 27 27 27 28 28 29 29 29 28 28 28 28 28 28 27 27 27 27 26 26 25 25 25 25 25 25 24 24 24 25
27 27 27 26 26 26 26 26 27 28 28 28 28 28 28 29 29 29 30 30 29 29 29 29 29 29 28 28 28 28 28 28 27 26 26 26 26 26 26 26 26 26 26
27 28 28 28 27 27 27 27 27 28 28 28 28 28 28 28 29 30 30 29 29 29 29 29 30 30 30 30 29 29 29 30 29 28 28 28 27 27 27 27 27 27 27
Wind_Direction
286 284 279 274 272 274 277 279 281 281 280 277 278 279 277 276 274 271 272 273 268 263 260 260 260 262 265 267 267 267 268 270 270 270 270 271 270 271 269 272 270 267 262
285 284 283 273 272 275 280 283 284 282 279 277 277 278 277 275 273 272 272 272 270 266 263 261 261 262 264 267 267 266 267 269 272 274 273 272 272 271 271 272 271 270 267
285 283 280 281 280 280 283 284 285 285 282 279 278 276 275 273 273 272 270 269 269 268 266 264 264 264 265 266 267 267 267 268 272 274 273 271 271 270 270 270 271 270 269
286 284 281 282 283 282 283 283 282 282 280 277 275 274 274 272 271 270 269 267 266 266 265 265 265 264 263 264 264 265 267 270 273 275 273 271 271 270 270 272 274 273 271
287 286 285 283 283 285 283 282 281 280 279 277 276 275 274 272 271 271 272 271 269 265 265 267 267 265 263 265 264 264 267 270 271 273 273 272 271 270 271 272 277 278 276
286 286 287 287 285 285 286 283 281 281 281 278 276 274 274 271 271 273 274 274 273 271 270 270 271 269 265 264 263 263 265 268 271 272 272 271 270 270 271 271 274 275 275
286 287 287 286 286 286 286 284 282 282 280 281 278 276 274 272 272 273 274 275 275 275 274 272 272 270 266 265 266 265 265 266 269 271 271 271 270 269 268 269 270 271 268
285 286 288 286 286 284 284 285 284 283 283 282 280 278 276 274 273 273 274 275 274 274 274 274 273 271 270 269 267 266 265 264 266 268 267 268 269 268 267 265 265 267 267
285 286 287 286 284 283 281 283 284 284 284 284 283 280 277 274 273 273 274 275 275 274 273 273 275 275 273 272 271 269 267 266 266 266 266 267 266 265 265 265 264 264 266
283 283 284 284 284 284 282 281 280 280 281 282 281 280 277 276 275 273 273 274 274 274 272 273 274 276 276 274 274 272 268 266 265 266 265 265 264 263 264 264 264 264 265
283 283 284 283 282 283 282 281 279 278 278 278 278 278 277 276 276 275 275 273 273 272 273 273 275 275 275 274 274 272 268 268 266 265 264 264 263 263 264 264 264 264 265
284 283 283 284 283 282 280 280 279 279 278 277 277 276 275 275 275 275 275 273 271 270 272 273 274 274 275 275 275 273 269 268 267 266 264 263 264 264 265 265 264 263 263
285 284 284 284 283 282 280 279 279 279 277 277 276 275 274 274 275 275 275 275 273 271 271 273 273 274 275 276 276 274 271 270 270 267 265 263 263 263 264 264 263 262 261
287 285 285 285 283 281 279 277 277 278 277 277 276 275 275 275 275 274 274 275 275 273 271 271 272 272 274 275 276 276 273 272 271 269 266 263 262 261 261 261 261 261 259
290 287 286 285 283 281 279 277 277 277 276 275 275 274 275 275 275 274 274 275 275 274 272 271 270 272 273 274 276 276 275 274 271 269 267 265 262 261 260 259 257 256 257
290 288 287 284 282 282 281 279 278 277 277 276 276 275 274 274 275 275 276 276 275 274 273 271 271 272 274 273 274 275 275 273 271 269 268 265 263 261 258 258 258 254 254
289 287 285 284 283 282 281 279 278 277 276 277 278 277 276 276 276 276 276 276 275 274 274 272 271 271 273 273 273 272 274 272 270 268 266 264 262 261 259 258 255 256 256
289 286 285 283 282 282 281 280 279 278 277 277 278 278 278 278 277 278 277 277 276 275 274 273 272 270 271 271 271 271 272 270 268 266 264 263 261 259 260 259 257 257 257
289 286 286 284 283 282 281 280 279 278 278 278 278 277 277 278 279 278 278 277 275 274 273 273 272 271 270 269 269 270 270 269 267 265 264 265 263 261 261 261 261 259 256
290 288 287 286 285 284 281 279 279 279 279 279 279 278 277 277 278 277 276 276 275 273 274 273 271 270 269 267 268 268 269 267 266 265 266 266 265 263 263 262 261 259 257
290 290 290 289 287 286 284 281 280 280 279 279 278 278 278 278 278 275 274 274 275 274 273 273 272 270 269 267 266 266 267 266 266 265 265 264 263 263 262 262 262 261 259
290 291 291 290 288 287 286 284 281 281 279 279 278 278 278 277 276 274 273 273 274 274 273 272 271 270 269 267 265 266 266 265 265 264 264 263 263 262 261 262 263 261 259
290 291 290 290 289 288 286 285 282 281 281 281 281 281 279 277 275 274 273 273 274 274 273 272 271 271 269 266 265 265 265 266 265 265 263 263 263 264 263 262 263 260 258
289 290 290 291 291 291 290 287 283 282 283 282 282 282 282 281 277 275 274 273 273 273 272 271 270 270 268 267 266 265 265 265 266 265 264 264 264 264 263 263 261 260 261
286 288 288 291 292 292 291 290 286 284 283 282 283 282 283 283 280 278 276 274 272 271 270 269 269 268 268 266 265 265 265 264 264 263 263 264 265 264 264 262 261 261 261
285 287 287 289 291 291 291 291 289 287 286 284 284 284 284 283 283 280 277 273 271 269 268 268 267 267 267 265 265 265 264 263 263 262 261 263 264 264 264 263 262 263 263
Height
5844 5843 5843 5843 5843 5842 5842 5842 5842 5842 5842 5843 5843 5843 5843 5844 5844 5844 5845 5845 5845 5846 5846 5847 5848 5848 5849 5849 5850 5850 5850 5851 5851 5852 5852 5852 5853 5853 5853 5853 5853 5852 5852
5841 5840 5840 5839 5839 5839 5839 5839 5839 5839 5840 5840 5840 5840 5840 5841 5841 5841 5842 5842 5842 5843 5843 5844 5844 5845 5845 5846 5846 5847 5847 5848 5848 5848 5849 5849 5850 5850 5850 5850 5851 5851 5851
5838 5837 5837 5837 5836 5836 5836 5836 5837 5837 5837 5837 5837 5837 5837 5838 5838 5838 5838 5839 5839 5840 5840 5841 5841 5842 5842 5843 5843 5844 5844 5845 5845 5845 5846 5846 5846 5847 5847 5847 5848 5848 5848
5835 5834 5834 5834 5834 5834 5834 5834 5834 5834 5834 5834 5834 5834 5834 5835 5835 5835 5835 5836 5836 5836 5837 5837 5838 5838 5839 5839 5840 5840 5841 5841 5842 5842 5842 5843 5843 5843 5844 5844 5844 5844 5844
5832 5832 5832 5831 5831 5831 5831 5831 5831 5831 5831 5831 5831 5831 5831 5831 5832 5832 5832 5832 5833 5833 5834 5834 5834 5835 5835 5836 5836 5837 5837 5838 5838 5839 5838 5839 5840 5840 5841 5841 5841 5840 5839
5829 5829 5829 5828 5828 5828 5828 5828 5828 5828 5828 5828 5828 5828 5828 5828 5828 5829 5828 5829 5829 5830 5830 5831 5831 5831 5831 5832 5832 5833 5834 5834 5835 5835 5835 5836 5836 5837 5837 5838 5838 5837 5836
5827 5826 5826 5826 5825 5825 5825 5824 5824 5824 5825 5825 5825 5825 5825 5825 5825 5825 5825 5825 5826 5826 5826 5827 5827 5827 5827 5828 5829 5829 5830 5831 5831 5832 5832 5832 5833 5833 5834 5834 5835 5835 5834
5824 5823 5823 5823 5822 5822 5822 5821 5821 5821 5821 5821 5821 5821 5821 5822 5821 5822 5822 5822 5822 5822 5823 5823 5823 5823 5824 5824 5825 5825 5826 5827 5827 5828 5828 5828 5829 5830 5830 5831 5831 5832 5832
5821 5820 5820 5819 5819 5819 5818 5818 5818 5818 5817 5817 5817 5817 5817 5818 5818 5818 5818 5818 5818 5819 5819 5819 5819 5819 5820 5820 5820 5821 5822 5822 5823 5824 5824 5825 5825 5826 5827 5827 5828 5829 5829
5817 5817 5816 5816 5816 5815 5815 5815 5814 5814 5814 5813 5813 5813 5813 5813 5813 5814 5814 5814 5814 5814 5815 5815 5815 5815 5815 5816 5816 5816 5817 5818 5818 5819 5820 5820 5821 5822 5823 5823 5824 5825 5825
5814 5813 5813 5812 5811 5811 5811 5810 5810 5810 5809 5809 5809 5809 5809 5809 5809 5809 5809 5809 5810 5810 5810 5810 5811 5811 5810 5811 5811 5811 5811 5812 5813 5814 5814 5815 5816 5817 5818 5819 5820 5821 5822
5810 5809 5808 5808 5807 5807 5806 5806 5805 5805 5804 5804 5804 5804 5804 5804 5804 5804 5804 5804 5804 5805 5805 5805 5805 5805 5805 5805 5806 5806 5806 5806 5807 5808 5809 5810 5811 5812 5813 5814 5815 5816 5818
5805 5804 5804 5803 5802 5801 5801 5800 5800 5799 5799 5799 5799 5798 5798 5798 5798 5799 5799 5799 5799 5799 5799 5799 5799 5799 5799 5799 5799 5800 5800 5800 5801 5801 5802 5803 5805 5806 5808 5809 5810 5811 5812
5800 5799 5798 5797 5796 5796 5795 5795 5794 5794 5793 5793 5793 5793 5793 5793 5793 5793 5793 5793 5793 5793 5793 5794 5793 5793 5793 5793 5793 5793 5793 5793 5793 5794 5795 5796 5798 5799 5801 5803 5804 5805 5807
5795 5794 5792 5791 5790 5789 5789 5788 5788 5788 5788 5787 5787 5787 5787 5787 5787 5786 5786 5786 5787 5787 5787 5787 5787 5787 5786 5787 5787 5786 5786 5786 5786 5787 5788 5789 5790 5792 5794 5796 5797 5798 5800
5789 5787 5786 5785 5784 5783 5783 5782 5782 5781 5781 5781 5781 5781 5780 5781 5780 5780 5780 5779 5779 5779 5779 5780 5780 5780 5780 5779 5779 5779 5779 5779 5779 5780 5781 5781 5783 5784 5786 5788 5790 5791 5793
5783 5781 5780 5779 5778 5777 5776 5776 5775 5775 5775 5774 5774 5774 5774 5774 5773 5773 5773 5772 5772 5771 5772 5772 5773 5773 5773 5773 5772 5772 5772 5772 5772 5773 5774 5775 5776 5777 5779 5780 5783 5784 5786
5776 5775 5774 5773 5772 5771 5770 5769 5769 5768 5768 5768 5767 5767 5767 5766 5766 5766 5765 5765 5765 5764 5764 5765 5765 5765 5765 5766 5766 5766 5766 5766 5766 5767 5767 5768 5769 5770 5772 5774 5775 5777 5779
5770 5769 5767 5766 5765 5764 5763 5762 5761 5761 5761 5760 5760 5760 5759 5759 5759 5758 5758 5758 5757 5757 5757 5757 5758 5758 5758 5758 5759 5759 5759 5759 5760 5760 5761 5762 5763 5764 5765 5766 5768 5770 5772
5764 5763 5761 5760 5758 5757 5756 5755 5754 5754 5753 5753 5752 5752 5751 5751 5751 5750 5750 5750 5750 5750 5750 5750 5750 5750 5751 5751 5751 5752 5753 5753 5753 5754 5755 5755 5756 5757 5758 5760 5761 5763 5765
5758 5756 5754 5753 5751 5750 5748 5747 5747 5746 5746 5745 5744 5744 5743 5743 5742 5742 5742 5742 5742 5742 5742 5742 5742 5743 5743 5744 5744 5745 5745 5746 5746 5747 5748 5749 5750 5751 5752 5753 5754 5756 5757
5751 5749 5747 5746 5744 5742 5741 5740 5739 5738 5738 5737 5736 5736 5735 5735 5734 5734 5734 5734 5734 5734 5734 5734 5735 5735 5735 5736 5737 5737 5738 5739 5740 5741 5741 5742 5743 5744 5745 5746 5747 5749 5750
5744 5742 5740 5738 5737 5735 5733 5732 5731 5730 5729 5729 5728 5728 5727 5726 5726 5726 5726 5726 5725 5725 5726 5726 5726 5727 5727 5728 5729 5729 5730 5731 5732 5733 5734 5735 5736 5737 5738 5739 5740 5742 5743
5737 5735 5733 5731 5729 5728 5726 5724 5723 5723 5722 5721 5720 5719 5719 5718 5717 5717 5717 5717 5717 5717 5717 5717 5718 5718 5719 5720 5720 5721 5722 5723 5724 5725 5726 5727 5728 5729 5731 5731 5733 5734 5735
5729 5727 5726 5724 5723 5721 5719 5717 5716 5715 5714 5713 5712 5711 5710 5709 5709 5708 5708 5708 5708 5708 5708 5708 5709 5709 5710 5711 5712 5713 5714 5716 5717 5718 5718 5720 5721 5721 5723 5724 5725 5726 5727
5721 5720 5719 5717 5715 5714 5712 5710 5708 5707 5706 5705 5704 5703 5701 5700 5699 5698 5697 5698 5698 5699 5699 5699 5700 5701 5701 5703 5704 5705 5706 5707 5708 5710 5711 5712 5712 5713 5715 5716 5717 5718 5720